| time (UTC) | temp F | wind direction | speed knots | gust knots | rain 1hr in | rain 24hr in | rain mn in | humidity % | barometer mb |
| 20260505213849 | 80 | 243 | 3.5 | 5.2 | 0.00 | 0.00 | 0.00 | 48 | 1015.9 |
| 20260505213347 | 80 | 197 | 5.2 | 7.0 | 0.00 | 0.00 | 0.00 | 47 | 1016.0 |
| 20260505212842 | 79 | 187 | 7.8 | 12.2 | 0.00 | 0.00 | 0.00 | 47 | 1015.8 |
| 20260505212340 | 80 | 160 | 4.3 | 6.1 | 0.00 | 0.00 | 0.00 | 46 | 1015.9 |
| 20260505211836 | 80 | 256 | 2.6 | 2.6 | 0.00 | 0.00 | 0.00 | 47 | 1016.0 |
| 20260505211334 | 80 | 175 | 4.3 | 6.1 | 0.00 | 0.00 | 0.00 | 46 | 1015.7 |
| 20260505210830 | 80 | 230 | 2.6 | 4.3 | 0.00 | 0.00 | 0.00 | 46 | 1015.7 |
| 20260505210327 | 81 | 233 | 5.2 | 6.1 | 0.00 | 0.00 | 0.00 | 45 | 1015.8 |
| 20260505205824 | 80 | 200 | 2.6 | 4.3 | 0.00 | 0.00 | 0.00 | 46 | 1015.7 |
| 20260505205322 | 81 | 281 | 1.7 | 1.7 | 0.00 | 0.00 | 0.00 | 46 | 1015.8 |
| 20260505204818 | 80 | 231 | 2.6 | 4.3 | 0.00 | 0.00 | 0.00 | 46 | 1015.9 |
| 20260505204317 | 81 | 219 | 5.2 | 7.8 | 0.00 | 0.00 | 0.00 | 46 | 1015.6 |
| 20260505203814 | 80 | 185 | 0.9 | 2.6 | 0.00 | 0.00 | 0.00 | 47 | 1015.8 |
| 20260505203310 | 81 | 151 | 5.2 | 6.1 | 0.00 | 0.00 | 0.00 | 45 | 1015.9 |
| 20260505202806 | 81 | 220 | 2.6 | 2.6 | 0.00 | 0.00 | 0.00 | 46 | 1016.1 |
| 20260505202306 | 82 | 211 | 5.2 | 6.1 | 0.00 | 0.00 | 0.00 | 45 | 1016.0 |
| 20260505201759 | 82 | 203 | 6.1 | 7.0 | 0.00 | 0.00 | 0.00 | 45 | 1016.1 |
| 20260505201257 | 81 | 211 | 1.7 | 2.6 | 0.00 | 0.00 | 0.00 | 45 | 1016.0 |
| 20260505200755 | 82 | 222 | 5.2 | 7.0 | 0.00 | 0.00 | 0.00 | 43 | 1016.3 |
| 20260505200252 | 81 | 203 | 4.3 | 7.0 | 0.00 | 0.00 | 0.00 | 43 | 1016.1 |
| 20260505195747 | 81 | 201 | 4.3 | 6.1 | 0.00 | 0.00 | 0.00 | 42 | 1016.4 |
| 20260505195245 | 81 | 202 | 5.2 | 7.0 | 0.00 | 0.00 | 0.00 | 41 | 1016.5 |
| 20260505194742 | 82 | 172 | 6.1 | 8.7 | 0.00 | 0.00 | 0.00 | 40 | 1016.5 |
| 20260505194238 | 82 | 299 | 5.2 | 7.8 | 0.00 | 0.00 | 0.00 | 40 | 1016.6 |
| 20260505193734 | 81 | 171 | 3.5 | 7.0 | 0.00 | 0.00 | 0.00 | 40 | 1016.9 |
| 20260505193232 | 81 | 199 | 4.3 | 6.1 | 0.00 | 0.00 | 0.00 | 40 | 1016.9 |
| 20260505192730 | 81 | 185 | 4.3 | 7.0 | 0.00 | 0.00 | 0.00 | 40 | 1016.8 |
| 20260505192227 | 82 | 205 | 6.1 | 8.7 | 0.00 | 0.00 | 0.00 | 40 | 1017.1 |
| 20260505191725 | 82 | 198 | 5.2 | 7.0 | 0.00 | 0.00 | 0.00 | 42 | 1016.9 |
| 20260505191224 | 81 | 329 | 4.3 | 6.1 | 0.00 | 0.00 | 0.00 | 41 | 1016.8 |
| 20260505190719 | 81 | 191 | 5.2 | 7.8 | 0.00 | 0.00 | 0.00 | 42 | 1016.8 |
| 20260505190213 | 81 | 185 | 2.6 | 5.2 | 0.00 | 0.00 | 0.00 | 43 | 1017.2 |
| 20260505185710 | 81 | 286 | 2.6 | 4.3 | 0.00 | 0.00 | 0.00 | 43 | 1016.9 |
| 20260505185207 | 81 | 152 | 6.1 | 7.0 | 0.00 | 0.00 | 0.00 | 42 | 1017.0 |
| 20260505184703 | 82 | 183 | 5.2 | 6.1 | 0.00 | 0.00 | 0.00 | 43 | 1016.8 |
| 20260505184201 | 81 | 199 | 1.7 | 1.7 | 0.00 | 0.00 | 0.00 | 41 | 1017.2 |
| 20260505183657 | 81 | 237 | 3.5 | 5.2 | 0.00 | 0.00 | 0.00 | 40 | 1017.2 |
| 20260505183155 | 82 | 168 | 4.3 | 5.2 | 0.00 | 0.00 | 0.00 | 41 | 1017.0 |
| 20260505182650 | 82 | 252 | 6.1 | 7.8 | 0.00 | 0.00 | 0.00 | 41 | 1017.2 |
| 20260505182148 | 81 | 244 | 3.5 | 5.2 | 0.00 | 0.00 | 0.00 | 41 | 1017.3 |
| 20260505181644 | 80 | 254 | 4.3 | 6.1 | 0.00 | 0.00 | 0.00 | 41 | 1017.4 |
| 20260505181142 | 81 | 229 | 4.3 | 7.0 | 0.00 | 0.00 | 0.00 | 38 | 1017.3 |
| 20260505180638 | 80 | 209 | 3.5 | 5.2 | 0.00 | 0.00 | 0.00 | 39 | 1017.4 |
| 20260505180136 | 81 | 236 | 1.7 | 1.7 | 0.00 | 0.00 | 0.00 | 42 | 1017.5 |
| 20260505175631 | 80 | 271 | 4.3 | 5.2 | 0.00 | 0.00 | 0.00 | 43 | 1017.5 |
| 20260505175128 | 79 | 217 | 3.5 | 5.2 | 0.00 | 0.00 | 0.00 | 44 | 1017.4 |
| 20260505174624 | 80 | 212 | 3.5 | 5.2 | 0.00 | 0.00 | 0.00 | 42 | 1017.3 |
| 20260505174120 | 79 | 208 | 1.7 | 2.6 | 0.00 | 0.00 | 0.00 | 44 | 1017.5 |
| 20260505173617 | 80 | 205 | 3.5 | 6.1 | 0.00 | 0.00 | 0.00 | 42 | 1017.6 |
| 20260505173115 | 80 | 216 | 2.6 | 5.2 | 0.00 | 0.00 | 0.00 | 44 | 1017.8 |
| 20260505172612 | 79 | 203 | 0.9 | 0.9 | 0.00 | 0.00 | 0.00 | 44 | 1017.6 |
| 20260505172109 | 80 | 222 | 3.5 | 6.1 | 0.00 | 0.00 | 0.00 | 45 | 1017.7 |
| 20260505171609 | 79 | 274 | 1.7 | 1.7 | 0.00 | 0.00 | 0.00 | 44 | 1017.9 |
| 20260505171106 | 79 | 172 | 3.5 | 6.1 | 0.00 | 0.00 | 0.00 | 45 | 1018.0 |
| 20260505170603 | 79 | 253 | 3.5 | 5.2 | 0.00 | 0.00 | 0.00 | 46 | 1017.8 |
| 20260505170059 | 79 | 280 | 3.5 | 5.2 | 0.00 | 0.00 | 0.00 | 45 | 1018.1 |
| 20260505165554 | 79 | 241 | 3.5 | 4.3 | 0.00 | 0.00 | 0.00 | 47 | 1018.0 |
| 20260505165050 | 78 | 237 | 3.5 | 5.2 | 0.00 | 0.00 | 0.00 | 48 | 1018.2 |
| 20260505164546 | 78 | 233 | 2.6 | 2.6 | 0.00 | 0.00 | 0.00 | 48 | 1018.1 |
| 20260505164038 | 78 | 182 | 7.0 | 8.7 | 0.00 | 0.00 | 0.00 | 47 | 1018.2 |
| 20260505163537 | 78 | 195 | 2.6 | 4.3 | 0.00 | 0.00 | 0.00 | 48 | 1018.2 |
| 20260505163033 | 77 | 171 | 5.2 | 7.0 | 0.00 | 0.00 | 0.00 | 46 | 1018.0 |
| 20260505162526 | 77 | 169 | 3.5 | 4.3 | 0.00 | 0.00 | 0.00 | 48 | 1018.2 |
| 20260505162023 | 77 | 283 | 2.6 | 4.3 | 0.00 | 0.00 | 0.00 | 46 | 1018.2 |
| 20260505161520 | 77 | 272 | 3.5 | 5.2 | 0.00 | 0.00 | 0.00 | 48 | 1018.2 |
| 20260505161017 | 77 | 190 | 2.6 | 4.3 | 0.00 | 0.00 | 0.00 | 50 | 1018.2 |
| 20260505160515 | 77 | 233 | 2.6 | 5.2 | 0.00 | 0.00 | 0.00 | 50 | 1018.4 |
| 20260505152951 | 75 | 214 | 4.3 | 5.2 | 0.00 | 0.00 | 0.00 | 53 | 1018.3 |
| 20260505152449 | 75 | 241 | 2.6 | 2.6 | 0.00 | 0.00 | 0.00 | 54 | 1018.5 |
| 20260505151943 | 74 | 281 | 2.6 | 2.6 | 0.00 | 0.00 | 0.00 | 55 | 1018.3 |
| 20260505151439 | 75 | 241 | 5.2 | 7.0 | 0.00 | 0.00 | 0.00 | 54 | 1018.2 |
| 20260505150937 | 74 | 221 | 1.7 | 4.3 | 0.00 | 0.00 | 0.00 | 55 | 1018.6 |
| 20260505150434 | 73 | 232 | 4.3 | 6.1 | 0.00 | 0.00 | 0.00 | 56 | 1018.3 |
| 20260505140404 | 71 | 266 | 2.6 | 2.6 | 0.00 | 0.00 | 0.00 | 61 | 1018.7 |
| 20260505124817 | 67 | 257 | 5.2 | 7.0 | 0.00 | 0.00 | 0.00 | 65 | 1018.8 |
| 20260505124314 | 67 | 226 | 1.7 | 1.7 | 0.00 | 0.00 | 0.00 | 66 | 1018.9 |
| 20260505123810 | 66 | 230 | 4.3 | 5.2 | 0.00 | 0.00 | 0.00 | 65 | 1018.6 |
| 20260505123307 | 66 | 204 | 2.6 | 4.3 | 0.00 | 0.00 | 0.00 | 67 | 1018.9 |
| 20260505122803 | 66 | 243 | 2.6 | 2.6 | 0.00 | 0.00 | 0.00 | 67 | 1018.6 |
| 20260505122301 | 65 | 228 | 2.6 | 2.6 | 0.00 | 0.00 | 0.00 | 68 | 1018.6 |
| 20260505121757 | 65 | 242 | 3.5 | 4.3 | 0.00 | 0.00 | 0.00 | 69 | 1018.7 |
| 20260505121254 | 64 | 249 | 0.9 | 1.7 | 0.00 | 0.00 | 0.00 | 70 | 1018.5 |
| 20260505120750 | 63 | 266 | 0.9 | 1.7 | 0.00 | 0.00 | 0.00 | 72 | 1018.6 |
| 20260505120246 | 63 | 196 | 1.7 | 2.6 | 0.00 | 0.00 | 0.00 | 73 | 1018.7 |
| 20260505115745 | 62 | 213 | 0.9 | 1.7 | 0.00 | 0.00 | 0.00 | 75 | 1018.5 |
| 20260505115243 | 62 | 196 | 1.7 | 1.7 | 0.00 | 0.00 | 0.00 | 75 | 1018.5 |
| 20260505114740 | 62 | 183 | 2.6 | 2.6 | 0.00 | 0.00 | 0.00 | 76 | 1018.7 |
| 20260505114236 | 61 | 242 | 0.0 | 0.9 | 0.00 | 0.00 | 0.00 | 77 | 1018.4 |
| 20260505113733 | 60 | 246 | 1.7 | 1.7 | 0.00 | 0.00 | 0.00 | 78 | 1018.5 |
| 20260505113229 | 60 | 268 | 1.7 | 2.6 | 0.00 | 0.00 | 0.00 | 79 | 1018.6 |
| 20260505112725 | 59 | 255 | 0.0 | 0.9 | 0.00 | 0.00 | 0.00 | 80 | 1018.6 |
| 20260505112223 | 59 | 300 | 2.6 | 2.6 | 0.00 | 0.00 | 0.00 | 80 | 1018.5 |
| 20260505111723 | 59 | 172 | 3.5 | 4.3 | 0.00 | 0.00 | 0.00 | 80 | 1018.5 |
| 20260505111219 | 59 | 260 | 0.9 | 0.9 | 0.00 | 0.00 | 0.00 | 81 | 1018.2 |
| 20260505110715 | 59 | 204 | 0.0 | 0.9 | 0.00 | 0.00 | 0.00 | 81 | 1018.5 |
| 20260505110213 | 59 | 207 | 2.6 | 4.3 | 0.00 | 0.00 | 0.00 | 81 | 1018.4 |
| 20260505102148 | 58 | 213 | 2.6 | 4.3 | 0.00 | 0.00 | 0.00 | 80 | 1018.0 |
| 20260505101647 | 58 | 260 | 1.7 | 2.6 | 0.00 | 0.00 | 0.00 | 80 | 1017.7 |
| 20260505101143 | 58 | 262 | 2.6 | 2.6 | 0.00 | 0.00 | 0.00 | 80 | 1017.8 |
| 20260505100639 | 58 | 274 | 2.6 | 2.6 | 0.00 | 0.00 | 0.00 | 80 | 1017.7 |
| 20260505100136 | 59 | 256 | 1.7 | 1.7 | 0.00 | 0.00 | 0.00 | 79 | 1017.6 |
| 20260505095632 | 59 | 306 | 2.6 | 4.3 | 0.00 | 0.00 | 0.00 | 79 | 1017.6 |
| 20260505095129 | 59 | 231 | 0.9 | 0.9 | 0.00 | 0.00 | 0.00 | 79 | 1017.8 |
| 20260505094626 | 59 | 238 | 1.7 | 1.7 | 0.00 | 0.00 | 0.00 | 79 | 1017.5 |
| 20260505094122 | 59 | 274 | 0.9 | 0.9 | 0.00 | 0.00 | 0.00 | 78 | 1017.3 |
| 20260505093618 | 59 | 260 | 0.9 | 1.7 | 0.00 | 0.00 | 0.00 | 78 | 1017.4 |
| 20260505093115 | 59 | 257 | 0.0 | 0.9 | 0.00 | 0.00 | 0.00 | 77 | 1017.3 |
| 20260505092613 | 59 | 283 | 0.9 | 1.7 | 0.00 | 0.00 | 0.00 | 77 | 1017.6 |
| 20260505092112 | 60 | 233 | 2.6 | 2.6 | 0.00 | 0.00 | 0.00 | 77 | 1017.1 |
| 20260505091608 | 60 | 216 | 0.9 | 1.7 | 0.00 | 0.00 | 0.00 | 76 | 1017.1 |
| 20260505091106 | 60 | 229 | 2.6 | 4.3 | 0.00 | 0.00 | 0.00 | 76 | 1017.0 |
| 20260505090604 | 60 | 226 | 0.9 | 1.7 | 0.00 | 0.00 | 0.00 | 76 | 1017.1 |
| 20260505085559 | 60 | 273 | 0.9 | 1.7 | 0.00 | 0.00 | 0.00 | 75 | 1017.1 |
| 20260505085057 | 60 | 268 | 1.7 | 1.7 | 0.00 | 0.00 | 0.00 | 75 | 1017.3 |
| 20260505084555 | 60 | 204 | 2.6 | 2.6 | 0.00 | 0.00 | 0.00 | 75 | 1017.2 |
| 20260505084052 | 60 | 259 | 0.0 | 0.0 | 0.00 | 0.00 | 0.00 | 75 | 1017.3 |
| 20260505083549 | 61 | 213 | 2.6 | 4.3 | 0.00 | 0.00 | 0.00 | 74 | 1017.3 |
| 20260505083046 | 61 | 292 | 1.7 | 1.7 | 0.00 | 0.00 | 0.00 | 74 | 1017.2 |
| 20260505082542 | 61 | 244 | 1.7 | 1.7 | 0.00 | 0.00 | 0.00 | 74 | 1017.1 |
| 20260505082039 | 61 | 220 | 2.6 | 2.6 | 0.00 | 0.00 | 0.00 | 73 | 1017.0 |
| 20260505081535 | 61 | 247 | 1.7 | 1.7 | 0.00 | 0.00 | 0.00 | 73 | 1017.2 |
| 20260505081032 | 61 | 250 | 2.6 | 2.6 | 0.00 | 0.00 | 0.00 | 73 | 1017.1 |
| 20260505080528 | 61 | 279 | 0.9 | 1.7 | 0.00 | 0.00 | 0.00 | 73 | 1017.1 |
| 20260505080026 | 61 | 257 | 0.9 | 1.7 | 0.00 | 0.00 | 0.00 | 73 | 1017.2 |
| 20260505075521 | 61 | 206 | 0.0 | 0.9 | 0.00 | 0.00 | 0.00 | 72 | 1016.9 |
| 20260505075018 | 61 | 201 | 3.5 | 5.2 | 0.00 | 0.00 | 0.00 | 72 | 1016.9 |
| 20260505074515 | 62 | 241 | 0.9 | 1.7 | 0.00 | 0.00 | 0.00 | 72 | 1017.0 |
| 20260505074013 | 62 | 242 | 1.7 | 1.7 | 0.00 | 0.00 | 0.00 | 72 | 1017.1 |
| 20260505073510 | 62 | 240 | 1.7 | 1.7 | 0.00 | 0.00 | 0.00 | 71 | 1016.9 |
| 20260505073008 | 62 | 200 | 0.9 | 0.9 | 0.00 | 0.00 | 0.00 | 71 | 1017.0 |
| 20260505072504 | 62 | 272 | 0.9 | 1.7 | 0.00 | 0.00 | 0.00 | 71 | 1016.8 |
| 20260505071959 | 62 | 251 | 2.6 | 2.6 | 0.00 | 0.00 | 0.00 | 70 | 1016.8 |
| 20260505071455 | 62 | 266 | 2.6 | 2.6 | 0.00 | 0.00 | 0.00 | 70 | 1016.7 |
| 20260505070954 | 62 | 225 | 3.5 | 5.2 | 0.00 | 0.00 | 0.00 | 70 | 1016.8 |
| 20260505070450 | 62 | 258 | 0.9 | 1.7 | 0.00 | 0.00 | 0.00 | 69 | 1016.7 |
| 20260505065946 | 62 | 239 | 2.6 | 4.3 | 0.00 | 0.00 | 0.00 | 69 | 1016.5 |
| 20260505065443 | 63 | 246 | 4.3 | 5.2 | 0.00 | 0.00 | 0.00 | 69 | 1016.7 |
| 20260505064939 | 63 | 254 | 1.7 | 1.7 | 0.00 | 0.00 | 0.00 | 68 | 1016.9 |
| 20260505064436 | 63 | 247 | 0.9 | 0.9 | 0.00 | 0.00 | 0.00 | 68 | 1016.7 |
| 20260505063935 | 63 | 194 | 2.6 | 2.6 | 0.00 | 0.00 | 0.00 | 68 | 1016.7 |
| 20260505063431 | 63 | 259 | 1.7 | 2.6 | 0.00 | 0.00 | 0.00 | 68 | 1016.8 |
| 20260505062927 | 63 | 254 | 3.5 | 4.3 | 0.00 | 0.00 | 0.00 | 67 | 1016.7 |
| 20260505062425 | 63 | 253 | 1.7 | 2.6 | 0.00 | 0.00 | 0.00 | 67 | 1016.8 |
| 20260505061921 | 63 | 228 | 2.6 | 2.6 | 0.00 | 0.00 | 0.00 | 66 | 1016.8 |
| 20260505061420 | 63 | 213 | 2.6 | 4.3 | 0.00 | 0.00 | 0.00 | 67 | 1016.8 |
| 20260505060917 | 64 | 259 | 1.7 | 1.7 | 0.00 | 0.00 | 0.00 | 66 | 1016.8 |
| 20260505060414 | 64 | 229 | 2.6 | 4.3 | 0.00 | 0.00 | 0.00 | 66 | 1016.9 |
| 20260505055910 | 64 | 199 | 0.0 | 0.9 | 0.00 | 0.00 | 0.00 | 66 | 1016.8 |
| 20260505055406 | 64 | 212 | 0.9 | 1.7 | 0.00 | 0.00 | 0.00 | 66 | 1016.9 |
| 20260505054903 | 64 | 201 | 4.3 | 6.1 | 0.00 | 0.00 | 0.00 | 66 | 1017.1 |
| 20260505054400 | 64 | 204 | 2.6 | 5.2 | 0.00 | 0.00 | 0.00 | 66 | 1017.3 |
| 20260505053858 | 64 | 223 | 1.7 | 1.7 | 0.00 | 0.00 | 0.00 | 66 | 1017.0 |
| 20260505053355 | 64 | 209 | 1.7 | 2.6 | 0.00 | 0.00 | 0.00 | 66 | 1017.0 |
| 20260505052852 | 64 | 269 | 2.6 | 2.6 | 0.00 | 0.00 | 0.00 | 65 | 1016.9 |
| 20260505052349 | 64 | 219 | 1.7 | 2.6 | 0.00 | 0.00 | 0.00 | 65 | 1017.2 |
| 20260505051846 | 64 | 254 | 6.1 | 7.8 | 0.00 | 0.00 | 0.00 | 65 | 1017.3 |
| 20260505051343 | 65 | 209 | 2.6 | 2.6 | 0.00 | 0.00 | 0.00 | 65 | 1017.3 |
| 20260505050841 | 65 | 152 | 3.5 | 5.2 | 0.00 | 0.00 | 0.00 | 65 | 1016.9 |
| 20260505050340 | 65 | 273 | 2.6 | 5.2 | 0.00 | 0.00 | 0.00 | 65 | 1017.2 |
| 20260505041307 | 65 | 207 | 0.9 | 2.6 | 0.00 | 0.00 | 0.00 | 65 | 1017.0 |
| 20260505040804 | 65 | 186 | 2.6 | 2.6 | 0.00 | 0.00 | 0.00 | 65 | 1017.1 |
| 20260505040301 | 65 | 292 | 1.7 | 1.7 | 0.00 | 0.00 | 0.00 | 65 | 1017.0 |
| 20260505035758 | 65 | 202 | 3.5 | 4.3 | 0.00 | 0.00 | 0.00 | 65 | 1016.7 |
| 20260505035253 | 65 | 236 | 4.3 | 6.1 | 0.00 | 0.00 | 0.00 | 65 | 1016.9 |
| 20260505034751 | 66 | 270 | 3.5 | 5.2 | 0.00 | 0.00 | 0.00 | 64 | 1017.0 |
| 20260505034248 | 65 | 266 | 3.5 | 5.2 | 0.00 | 0.00 | 0.00 | 64 | 1016.9 |
| 20260505033744 | 65 | 254 | 3.5 | 4.3 | 0.00 | 0.00 | 0.00 | 65 | 1016.8 |
| 20260505033242 | 66 | 114 | 1.7 | 2.6 | 0.00 | 0.00 | 0.00 | 65 | 1016.8 |
| 20260505032740 | 66 | 238 | 2.6 | 2.6 | 0.00 | 0.00 | 0.00 | 64 | 1017.0 |
| 20260505032235 | 66 | 208 | 2.6 | 5.2 | 0.00 | 0.00 | 0.00 | 65 | 1016.9 |
| 20260505031733 | 66 | 254 | 1.7 | 2.6 | 0.00 | 0.00 | 0.00 | 65 | 1016.9 |
| 20260505031229 | 66 | 163 | 3.5 | 4.3 | 0.00 | 0.00 | 0.00 | 65 | 1016.8 |
| 20260505030726 | 66 | 266 | 2.6 | 4.3 | 0.00 | 0.00 | 0.00 | 65 | 1016.8 |
| 20260505030222 | 66 | 265 | 4.3 | 5.2 | 0.00 | 0.00 | 0.00 | 65 | 1016.9 |
| 20260505025718 | 66 | 239 | 2.6 | 2.6 | 0.00 | 0.00 | 0.00 | 65 | 1016.9 |
| 20260505025217 | 66 | 251 | 4.3 | 7.0 | 0.00 | 0.00 | 0.00 | 65 | 1017.0 |
| 20260505024714 | 66 | 235 | 3.5 | 4.3 | 0.00 | 0.00 | 0.00 | 65 | 1016.8 |
| 20260505024211 | 66 | 237 | 1.7 | 2.6 | 0.00 | 0.00 | 0.00 | 65 | 1016.7 |
| 20260505023709 | 66 | 218 | 3.5 | 4.3 | 0.00 | 0.00 | 0.00 | 66 | 1016.9 |
| 20260505023206 | 66 | 207 | 4.3 | 5.2 | 0.00 | 0.00 | 0.00 | 66 | 1016.6 |
| 20260505022703 | 66 | 265 | 4.3 | 6.1 | 0.00 | 0.00 | 0.00 | 66 | 1016.7 |
| 20260505022200 | 66 | 235 | 2.6 | 4.3 | 0.00 | 0.00 | 0.00 | 66 | 1016.5 |
| 20260505021657 | 67 | 239 | 1.7 | 1.7 | 0.00 | 0.00 | 0.00 | 66 | 1016.9 |
| 20260505021154 | 67 | 210 | 3.5 | 4.3 | 0.00 | 0.00 | 0.00 | 66 | 1016.7 |
| 20260505020649 | 67 | 215 | 2.6 | 4.3 | 0.00 | 0.00 | 0.00 | 66 | 1017.0 |
| 20260505020145 | 67 | 239 | 1.7 | 2.6 | 0.00 | 0.00 | 0.00 | 66 | 1017.1 |
| 20260505015643 | 67 | 213 | 1.7 | 1.7 | 0.00 | 0.00 | 0.00 | 65 | 1016.7 |
| 20260505015139 | 67 | 227 | 3.5 | 5.2 | 0.00 | 0.00 | 0.00 | 65 | 1016.8 |
| 20260505014636 | 67 | 237 | 1.7 | 1.7 | 0.00 | 0.00 | 0.00 | 65 | 1016.8 |
| 20260505014133 | 67 | 219 | 2.6 | 2.6 | 0.00 | 0.00 | 0.00 | 65 | 1016.8 |
| 20260505013631 | 67 | 191 | 3.5 | 4.3 | 0.00 | 0.00 | 0.00 | 65 | 1016.9 |
| 20260505013127 | 67 | 265 | 0.0 | 0.0 | 0.00 | 0.00 | 0.00 | 65 | 1016.6 |
| 20260505012626 | 67 | 163 | 2.6 | 5.2 | 0.00 | 0.00 | 0.00 | 65 | 1016.5 |
| 20260505012122 | 67 | 234 | 2.6 | 2.6 | 0.00 | 0.00 | 0.00 | 65 | 1016.6 |
| 20260505011618 | 67 | 206 | 0.9 | 1.7 | 0.00 | 0.00 | 0.00 | 65 | 1016.6 |
| 20260505011115 | 68 | 202 | 1.7 | 2.6 | 0.00 | 0.00 | 0.00 | 65 | 1016.4 |
| 20260505010611 | 68 | 204 | 1.7 | 2.6 | 0.00 | 0.00 | 0.00 | 65 | 1016.3 |
| 20260505010108 | 67 | 254 | 2.6 | 4.3 | 0.00 | 0.00 | 0.00 | 65 | 1016.2 |
| 20260505005604 | 68 | 218 | 1.7 | 2.6 | 0.00 | 0.00 | 0.00 | 65 | 1016.3 |
| 20260505005101 | 68 | 168 | 3.5 | 4.3 | 0.00 | 0.00 | 0.00 | 65 | 1016.1 |
| 20260505004558 | 68 | 195 | 3.5 | 5.2 | 0.00 | 0.00 | 0.00 | 65 | 1016.0 |
| 20260505004055 | 68 | 188 | 2.6 | 2.6 | 0.00 | 0.00 | 0.00 | 65 | 1016.0 |
| 20260505003552 | 68 | 195 | 3.5 | 5.2 | 0.00 | 0.00 | 0.00 | 64 | 1016.0 |
| 20260505003050 | 68 | 204 | 0.9 | 1.7 | 0.00 | 0.00 | 0.00 | 64 | 1015.9 |
| 20260505002550 | 68 | 189 | 2.6 | 2.6 | 0.00 | 0.00 | 0.00 | 63 | 1015.8 |
| 20260505002049 | 69 | 227 | 2.6 | 2.6 | 0.00 | 0.00 | 0.00 | 63 | 1015.8 |
| 20260505001546 | 69 | 227 | 2.6 | 2.6 | 0.00 | 0.00 | 0.00 | 62 | 1015.8 |
| 20260505001043 | 69 | 194 | 1.7 | 4.3 | 0.00 | 0.00 | 0.00 | 62 | 1015.7 |
| 20260505000540 | 69 | 247 | 0.9 | 1.7 | 0.00 | 0.00 | 0.00 | 62 | 1015.6 |
| 20260505000038 | 69 | 187 | 4.3 | 6.1 | 0.00 | 0.00 | 0.00 | 62 | 1015.6 |
| 20260504235534 | 69 | 211 | 5.2 | 7.8 | 0.00 | 0.00 | 0.00 | 61 | 1015.7 |
| 20260504235031 | 69 | 206 | 3.5 | 7.0 | 0.00 | 0.00 | 0.00 | 62 | 1015.5 |
| 20260504234528 | 70 | 346 | 0.9 | 2.6 | 0.00 | 0.00 | 0.00 | 62 | 1015.5 |
| 20260504234025 | 70 | 201 | 0.9 | 1.7 | 0.00 | 0.00 | 0.00 | 61 | 1015.4 |
| 20260504233520 | 70 | 171 | 4.3 | 5.2 | 0.00 | 0.00 | 0.00 | 61 | 1015.1 |
| 20260504233018 | 70 | 164 | 4.3 | 6.1 | 0.00 | 0.00 | 0.00 | 60 | 1015.3 |
| 20260504232514 | 71 | 175 | 4.3 | 6.1 | 0.00 | 0.00 | 0.00 | 60 | 1015.2 |
| 20260504232012 | 71 | 218 | 1.7 | 1.7 | 0.00 | 0.00 | 0.00 | 60 | 1015.1 |
| 20260504231508 | 71 | 151 | 4.3 | 6.1 | 0.00 | 0.00 | 0.00 | 59 | 1014.9 |
| 20260504231005 | 71 | 183 | 1.7 | 2.6 | 0.00 | 0.00 | 0.00 | 58 | 1015.0 |
| 20260504230501 | 72 | 267 | 2.6 | 2.6 | 0.00 | 0.00 | 0.00 | 58 | 1015.0 |
| 20260504230000 | 72 | 173 | 7.0 | 8.7 | 0.00 | 0.00 | 0.00 | 57 | 1015.0 |
| 20260504225456 | 73 | 215 | 3.5 | 5.2 | 0.00 | 0.00 | 0.00 | 57 | 1014.9 |
| 20260504224954 | 73 | 183 | 4.3 | 6.1 | 0.00 | 0.00 | 0.00 | 57 | 1015.0 |
| 20260504224450 | 75 | 181 | 2.6 | 4.3 | 0.00 | 0.00 | 0.00 | 54 | 1014.8 |
| 20260504223947 | 76 | 252 | 1.7 | 2.6 | 0.00 | 0.00 | 0.00 | 39 | 1014.6 |
| 20260504223443 | 76 | 223 | 2.6 | 4.3 | 0.00 | 0.00 | 0.00 | 38 | 1014.9 |
| 20260504222939 | 76 | 241 | 2.6 | 4.3 | 0.00 | 0.00 | 0.00 | 39 | 1014.7 |
| 20260504222437 | 77 | 183 | 0.9 | 2.6 | 0.00 | 0.00 | 0.00 | 38 | 1014.8 |
| 20260504221934 | 77 | 259 | 5.2 | 7.8 | 0.00 | 0.00 | 0.00 | 38 | 1014.7 |
| 20260504221431 | 77 | 259 | 4.3 | 6.1 | 0.00 | 0.00 | 0.00 | 38 | 1014.7 |
| 20260504220928 | 77 | 164 | 6.1 | 7.8 | 0.00 | 0.00 | 0.00 | 38 | 1014.7 |
| 20260504220425 | 77 | 274 | 2.6 | 2.6 | 0.00 | 0.00 | 0.00 | 38 | 1014.9 |
| 20260504215922 | 77 | 251 | 5.2 | 7.0 | 0.00 | 0.00 | 0.00 | 38 | 1014.5 |
| 20260504215419 | 77 | 285 | 5.2 | 7.0 | 0.00 | 0.00 | 0.00 | 37 | 1014.9 |
| 20260504214915 | 77 | 306 | 4.3 | 6.1 | 0.00 | 0.00 | 0.00 | 38 | 1014.9 |
| 20260504214412 | 77 | 242 | 2.6 | 4.3 | 0.00 | 0.00 | 0.00 | 37 | 1014.7 |